Location: *
(51.0333°S, 178.4667°E)
Time: 07:34:29
(UTC+00:00)

STARLINK-42 - Pass Details

Date: 15 November 2019
Orbit: 529 x 530 km, 53.0° (Epoch: 16 December)

Event Time Altitude Azimuth Distance (km) Brightness Sun altitude
Rises 11:41:15 0° 250° (WSW) 2,690 7.4 -20.5°
Reaches altitude 10° 11:43:30 10° 254° (WSW) 1,798 6.4 -20.5°
Enters shadow 11:47:09 54° 309° (NW) 657 3.7 -20.5°
